Change the Weather History Date:

Friday, November 11, 2011

  Actual Average Record
Temperature  
Mean Temperature 39 °F 46 °F  
Max Temperature 52 °F 56 °F 75 °F (2010)
Min Temperature 26 °F 36 °F -67 °F (1996)
Degree Days  
Heating Degree Days 26 19  
Month to date heating degree days 165 188  
Since 1 July heating degree days 607 607  
Cooling Degree Days 0 0  
Month to date cooling degree days 0 0  
Year to date cooling degree days 1170 926  
Moisture  
Dew Point 25 °F    
Average Humidity 64    
Maximum Humidity 92    
Minimum Humidity 36    
Precipitation  
Precipitation 0.00 in 0.12 in 0.97 in (2003)
Month to date precipitation 0.67 1.50  
Year to date precipitation 47.95 41.57  
Sea Level Pressure  
Sea Level Pressure 30.03 in    
Wind  
Wind Speed 7 mph (SSW)    
Max Wind Speed 20 mph    
Max Gust Speed 29 mph    
Visibility 10 miles    
Events      
T = Trace of Precipitation, MM = Missing Value Source: NWS Daily Summary

Daily Weather History Graph

Daily Weather History Graph

Search for Another Location

Airport or City:

Trip Planner

Search our weather history database for the weather conditions in past years. The results will help you decide how hot, cold, wet, or windy it might be!

Date:

Astronomy

Nov. 11, 2011 Rise Set
Actual Time 7:24 AM EST 5:35 PM EST
Civil Twilight 6:56 AM EST 6:03 PM EST
Nautical Twilight 6:24 AM EST 6:35 PM EST
Astronomical Twilight 5:52 AM EST 7:07 PM EST
Moon 6:04 PM EST (11/11) 8:12 AM EST (11/11)
Length of Visible Light 11h 07m
Length of Day
10h 10m
Full, 99% of the Moon is Illuminated
Nov 11
Full
Nov 18
Last Quarter
Nov 25
New
Dec 2
First Quarter
Dec 10
Full

Hourly Weather History & Observations

Time (EST) Temp. Windchill Dew Point Humidity Pressure Visibility Wind Dir Wind Speed Gust Speed Precip Events Conditions
12:53 AM 32.0 °F 26.4 °F 25.0 °F 75% 30.11 in 10.0 mi WNW 5.8 mph - N/A   Clear
1:53 AM 30.9 °F 26.2 °F 25.0 °F 79% 30.11 in 10.0 mi West 4.6 mph - N/A   Clear
2:53 AM 28.9 °F 23.9 °F 24.1 °F 82% 30.10 in 10.0 mi West 4.6 mph - N/A   Clear
3:53 AM 28.9 °F - 24.1 °F 82% 30.10 in 10.0 mi Calm Calm - N/A   Clear
4:53 AM 27.0 °F - 24.1 °F 89% 30.10 in 10.0 mi Calm Calm - N/A   Clear
5:53 AM 28.0 °F 22.8 °F 24.1 °F 85% 30.12 in 10.0 mi West 4.6 mph - N/A   Clear
6:53 AM 28.0 °F - 24.1 °F 85% 30.13 in 10.0 mi Calm Calm - N/A   Clear
7:53 AM 27.0 °F - 24.1 °F 89% 30.13 in 10.0 mi Calm Calm - N/A   Clear
9:53 AM 36.0 °F 31.1 °F 27.0 °F 70% 30.13 in 10.0 mi SW 5.8 mph - N/A   Clear
10:53 AM 39.9 °F 33.9 °F 27.0 °F 60% 30.11 in 10.0 mi South 9.2 mph - N/A   Scattered Clouds
11:53 AM 44.1 °F 37.7 °F 26.1 °F 49% 30.09 in 10.0 mi SSW 12.7 mph - N/A   Partly Cloudy
12:53 PM 45.0 °F 41.8 °F 25.0 °F 46% 30.06 in 10.0 mi South 5.8 mph - N/A   Clear
1:53 PM 48.0 °F - 23.0 °F 37% 30.04 in 10.0 mi SW 8.1 mph - N/A   Partly Cloudy
2:53 PM 48.9 °F - 23.0 °F 36% 30.00 in 10.0 mi SSE 9.2 mph - N/A   Clear
3:53 PM 48.0 °F - 23.0 °F 37% 29.97 in 10.0 mi South 10.4 mph - N/A   Clear
4:53 PM 46.9 °F - 24.1 °F 41% 29.96 in 10.0 mi South 10.4 mph - N/A   Clear
5:53 PM 43.0 °F 39.5 °F 24.1 °F 47% 29.95 in 10.0 mi South 5.8 mph - N/A   Clear
6:53 PM 41.0 °F 37.1 °F 24.1 °F 51% 29.95 in 10.0 mi SSE 5.8 mph - N/A   Clear
7:53 PM 42.1 °F 37.1 °F 24.1 °F 49% 29.94 in 10.0 mi SSE 8.1 mph - N/A   Clear
8:53 PM 41.0 °F 34.7 °F 25.0 °F 53% 29.92 in 10.0 mi SSE 10.4 mph - N/A   Clear
9:53 PM 41.0 °F 37.1 °F 26.1 °F 55% 29.91 in 10.0 mi South 5.8 mph - N/A   Clear
10:53 PM 48.0 °F - 28.9 °F 48% 29.90 in 10.0 mi SSW 10.4 mph - N/A   Clear
11:53 PM 52.0 °F - 30.9 °F 45% 29.89 in 10.0 mi SW 16.1 mph 28.8 mph N/A   Clear